Prairie Du Chien, WI

8:06 AM CDT on June 25, 2018 (GMT -0500)
Prairie Du Chien Municipal

Weather History for KPDC - September, 2017

Change the Weather History Date:

Thursday, September 14, 2017

  Actual Average Record
Temperature  
Mean Temperature 70 °F -  
Max Temperature 87 °F 75 °F 89 °F (1955)
Min Temperature 54 °F 52 °F 36 °F (1975)
Cooling Degree Days 6    
Growing Degree Days 20 (Base 50)    
Moisture  
Dew Point 58 °F    
Average Humidity 68    
Maximum Humidity 94    
Minimum Humidity 37    
Precipitation  
Precipitation 0.00 in - - ()
Sea Level Pressure  
Sea Level Pressure 29.81 in    
Wind  
Wind Speed 3 mph (SE)    
Max Wind Speed 10 mph    
Max Gust Speed -    
Visibility 10 miles    
Events      
Averages and records for this station are not official NWS values.
T = Trace of Precipitation, MM = Missing Value Source: NWS Daily Summary

Daily Weather History Graph

Daily Weather History Graph

Search for Another Location

Airport or City:

Astronomy

Sep. 14, 2017 Rise Set
Actual Time 6:43 AM CDT 7:15 PM CDT
Civil Twilight 6:14 AM CDT 7:44 PM CDT
Nautical Twilight 5:41 AM CDT 8:17 PM CDT
Astronomical Twilight 5:06 AM CDT 8:52 PM CDT
Moon 12:33 AM CDT (9/14) 3:39 PM CDT (9/14)
Length of Visible Light 13h 29m
Length of Day
12h 32m
Waning Crescent, 34% of the Moon is Illuminated
Sep 14
Waning Crescent
Sep 20
New
Sep 27
First Quarter
Oct 5
Full
Oct 12
Last Quarter

Hourly Weather History & Observations

Time (CDT) Temp. Heat Index Dew Point Humidity Pressure Visibility Wind Dir Wind Speed Gust Speed Precip Events Conditions
12:15 AM 59.2 °F - 56.5 °F 91% 29.78 in 10.0 mi Calm Calm - N/A   Clear
12:35 AM 58.3 °F - 55.6 °F 91% 29.78 in 10.0 mi ESE 4.6 mph - N/A   Clear
12:55 AM 58.1 °F - 55.6 °F 91% 29.78 in 10.0 mi ESE 4.6 mph - N/A   Clear
1:15 AM 58.5 °F - 56.3 °F 93% 29.78 in 10.0 mi SE 3.5 mph - N/A   Clear
1:35 AM 58.3 °F - 56.3 °F 93% 29.78 in 10.0 mi SE 3.5 mph - N/A   Clear
1:55 AM 58.1 °F - 55.9 °F 93% 29.79 in 10.0 mi SE 3.5 mph - N/A   Clear
2:15 AM 57.4 °F - 55.4 °F 93% 29.79 in 10.0 mi SE 4.6 mph - N/A   Clear
2:35 AM 57.2 °F - 54.9 °F 92% 29.79 in 10.0 mi ESE 3.5 mph - N/A   Clear
2:55 AM 56.7 °F - 54.7 °F 93% 29.79 in 10.0 mi Calm Calm - N/A   Clear
3:15 AM 56.7 °F - 54.5 °F 92% 29.79 in 10.0 mi SE 3.5 mph - N/A   Clear
3:35 AM 56.7 °F - 54.5 °F 92% 29.79 in 10.0 mi SSE 3.5 mph - N/A   Clear
3:55 AM 56.5 °F - 54.5 °F 93% 29.79 in 10.0 mi SE 3.5 mph - N/A   Clear
4:15 AM 56.3 °F - 54.1 °F 92% 29.79 in 10.0 mi Calm Calm - N/A   Clear
4:35 AM 55.8 °F - 54.0 °F 94% 29.79 in 10.0 mi Calm Calm - N/A   Clear
4:55 AM 55.6 °F - 53.2 °F 92% 29.79 in 10.0 mi Calm Calm - N/A   Clear
5:15 AM 55.6 °F - 53.6 °F 93% 29.79 in 10.0 mi SE 3.5 mph - N/A   Clear
5:35 AM 55.4 °F - 53.1 °F 92% 29.79 in 10.0 mi Calm Calm - N/A   Clear
5:55 AM 55.4 °F - 53.6 °F 94% 29.80 in 10.0 mi SE 3.5 mph - N/A   Clear
6:15 AM 54.9 °F - 52.7 °F 92% 29.80 in 10.0 mi SE 3.5 mph - N/A   Clear
6:35 AM 55.2 °F - 53.1 °F 92% 29.81 in 10.0 mi Calm Calm - N/A   Clear
6:55 AM 55.4 °F - 53.1 °F 92% 29.81 in 10.0 mi Calm Calm - N/A   Clear
7:15 AM 55.4 °F - 53.1 °F 92% 29.81 in 10.0 mi SSE 3.5 mph - N/A   Clear
7:35 AM 56.1 °F - 53.6 °F 91% 29.82 in 10.0 mi Calm Calm - N/A   Clear
7:55 AM 57.2 °F - 54.1 °F 89% 29.83 in 10.0 mi Calm Calm - N/A   Clear
8:15 AM 58.5 °F - 54.9 °F 88% 29.83 in 10.0 mi Calm Calm - N/A   Clear
8:35 AM 60.1 °F - 55.4 °F 85% 29.84 in 10.0 mi Calm Calm - N/A   Clear
8:55 AM 62.2 °F - 56.1 °F 80% 29.84 in 10.0 mi Calm Calm - N/A   Clear
9:15 AM 64.4 °F - 55.2 °F 72% 29.84 in 10.0 mi Calm Calm - N/A   Clear
9:35 AM 66.9 °F - 55.2 °F 66% 29.84 in 10.0 mi Calm Calm - N/A   Clear
9:55 AM 69.6 °F - 56.1 °F 62% 29.84 in 10.0 mi Calm Calm - N/A   Clear
10:15 AM 71.4 °F - 55.8 °F 58% 29.84 in 10.0 mi East 3.5 mph - N/A   Clear
10:35 AM 73.4 °F - 56.7 °F 56% 29.84 in 10.0 mi ESE 3.5 mph - N/A   Clear
10:55 AM 75.2 °F - 57.6 °F 54% 29.83 in 10.0 mi South 3.5 mph - N/A   Clear
11:15 AM 77.0 °F - 58.3 °F 52% 29.83 in 10.0 mi SSW 3.5 mph - N/A   Scattered Clouds
11:35 AM 78.3 °F - 59.2 °F 52% 29.83 in 10.0 mi SSW 4.6 mph - N/A   Scattered Clouds
11:55 AM 79.0 °F - 59.5 °F 51% 29.83 in 10.0 mi South 4.6 mph - N/A   Clear
12:15 PM 79.9 °F - 59.5 °F 50% 29.82 in 10.0 mi SSW 4.6 mph - N/A   Clear
12:35 PM 81.5 °F 82.0 °F 59.9 °F 48% 29.82 in 10.0 mi South 4.6 mph - N/A   Clear
12:55 PM 81.5 °F 82.0 °F 59.9 °F 48% 29.81 in 10.0 mi South 5.8 mph - N/A   Clear
1:15 PM 83.3 °F 83.2 °F 59.2 °F 44% 29.81 in 10.0 mi SSE 5.8 mph - N/A   Clear
1:35 PM 84.7 °F 84.6 °F 59.9 °F 43% 29.81 in 10.0 mi South 6.9 mph - N/A   Clear
1:55 PM 85.6 °F 85.4 °F 59.9 °F 42% 29.80 in 10.0 mi SSE 5.8 mph - N/A   Clear
2:15 PM 86.2 °F 85.6 °F 59.2 °F 40% 29.79 in 10.0 mi SSE 6.9 mph - N/A   Clear
2:35 PM 86.7 °F 85.9 °F 58.6 °F 38% 29.79 in 10.0 mi SSE 8.1 mph - N/A   Clear
2:55 PM 86.7 °F 85.9 °F 58.5 °F 38% 29.80 in 10.0 mi South 5.8 mph - N/A   Clear
3:15 PM 87.1 °F 86.3 °F 58.3 °F 38% 29.79 in 10.0 mi SSE 6.9 mph - N/A   Clear
3:35 PM 86.9 °F 86.1 °F 58.3 °F 38% 29.79 in 10.0 mi South 6.9 mph - N/A   Clear
3:55 PM 87.8 °F 86.9 °F 58.6 °F 37% 29.79 in 10.0 mi SSE 6.9 mph - N/A   Clear
4:15 PM 87.3 °F 86.3 °F 58.3 °F 37% 29.78 in 10.0 mi SE 10.4 mph - N/A   Clear
4:35 PM 86.9 °F 86.1 °F 58.1 °F 38% 29.78 in 10.0 mi SE 6.9 mph - N/A   Clear
4:55 PM 86.5 °F 85.9 °F 58.6 °F 39% 29.78 in 10.0 mi SE 10.4 mph - N/A   Clear
5:15 PM 85.8 °F 85.2 °F 58.6 °F 40% 29.78 in 10.0 mi SSE 6.9 mph - N/A   Clear
5:35 PM 85.1 °F 84.8 °F 59.4 °F 42% 29.79 in 10.0 mi SE 5.8 mph - N/A   Clear
5:55 PM 84.2 °F 84.4 °F 60.8 °F 45% 29.79 in 10.0 mi SE 4.6 mph - N/A   Clear
6:15 PM 83.1 °F 83.7 °F 61.7 °F 48% 29.80 in 10.0 mi SE 5.8 mph - N/A   Clear
6:35 PM 81.9 °F 82.8 °F 61.9 °F 51% 29.80 in 10.0 mi SE 4.6 mph - N/A   Clear
6:55 PM 80.1 °F 81.2 °F 62.2 °F 54% 29.80 in 10.0 mi ESE 4.6 mph - N/A   Clear
7:15 PM 78.4 °F - 62.8 °F 58% 29.80 in 10.0 mi ESE 8.1 mph - N/A   Clear
7:35 PM 77.0 °F - 62.6 °F 61% 29.80 in 10.0 mi ESE 5.8 mph - N/A   Clear
7:55 PM 75.6 °F - 62.4 °F 64% 29.80 in 10.0 mi East 5.8 mph - N/A   Clear
8:15 PM 74.7 °F - 62.2 °F 65% 29.81 in 10.0 mi ESE 4.6 mph - N/A   Clear
8:35 PM 73.9 °F - 62.2 °F 67% 29.81 in 10.0 mi East 4.6 mph - N/A   Clear
8:55 PM 74.1 °F - 62.2 °F 66% 29.81 in 10.0 mi ESE 6.9 mph - N/A   Clear
9:15 PM 72.9 °F - 62.2 °F 69% 29.82 in 10.0 mi East 4.6 mph - N/A   Clear
9:35 PM 73.0 °F - 62.4 °F 69% 29.82 in 10.0 mi ESE 4.6 mph - N/A   Clear
9:55 PM 74.3 °F - 61.9 °F 65% 29.83 in 10.0 mi ESE 4.6 mph - N/A   Clear
10:15 PM 73.4 °F - 61.7 °F 67% 29.84 in 10.0 mi East 4.6 mph - N/A   Clear
10:35 PM 73.4 °F - 61.3 °F 66% 29.84 in 10.0 mi ESE 4.6 mph - N/A   Clear
10:55 PM 72.9 °F - 61.7 °F 68% 29.84 in 10.0 mi ENE 4.6 mph - N/A   Clear
11:15 PM 72.9 °F - 61.2 °F 67% 29.85 in 10.0 mi Calm Calm - N/A   Scattered Clouds
11:35 PM 73.4 °F - 60.8 °F 65% 29.85 in 10.0 mi East 3.5 mph - N/A   Mostly Cloudy
11:55 PM 73.6 °F - 60.3 °F 63% 29.85 in 10.0 mi ESE 6.9 mph - N/A   Mostly Cloudy